Regional Weather Roundup
Issued by NWS Little Rock, AR

Home | Current Version | Previous Version | Graphics & Text | Print | Product List | Glossary On
Versions: 1 2 3 4 5 6 7 8 9 10 11 12 13 14 15 16 17 18 19 20 21 22 23 24 25 26 27 28 29 30 31 32 33 34 35 36 37 38 39 40 41 42 43 44 45 46 47 48 49 50
000
ASUS44 KLZK 140305
RWRLZK

WEATHER ROUNDUP FOR ARKANSAS
NATIONAL WEATHER SERVICE LITTLE ROCK AR
1000 PM CDT SUN JUL 13 2014

NOTE: "FAIR" INDICATES FEW OR NO CLOUDS BELOW 12,000 FEET WITH NO
SIGNIFICANT WEATHER AND/OR OBSTRUCTIONS TO VISIBILITY.

ARZ001-003-010-029-140400-
NORTHWEST ARKANSAS

CITY           SKY/WX    TMP DP  RH WIND       PRES   REMARKS
FAYETTEVILLE   PTCLDY    81  72  74 SW3       30.00R HX  85
FORT SMITH     CLEAR     87  71  58 CALM      29.96R HX  93
HARRISON       PTCLDY    80  68  66 S6        30.00R
BENTONVILLE    PTCLDY    82  72  69 SW6       30.00S HX  87
ROGERS         PTCLDY    83  71  67 S9        30.00S HX  87
SILOAM SPGS    PTCLDY    81  66  61 S7        30.00S
HIGHFILL       CLOUDY    81  73  76 SE5       29.99S HX  86
$$

ARZ004-005-016-140400-
NORTH CENTRAL ARKANSAS

CITY           SKY/WX    TMP DP  RH WIND       PRES   REMARKS
BATESVILLE     CLEAR     84  73  70 S8        29.97S HX  91
FLIPPIN          N/A     81  70  69 S3        29.97S
MTN HOME       CLEAR     80  71  74 S5        29.96R
$$

ARZ040-041-140400-
WEST CENTRAL ARKANSAS

CITY           SKY/WX    TMP DP  RH WIND       PRES   REMARKS
MENA           CLEAR     84  70  61 CALM      30.03R HX  88
MOUNT IDA      CLEAR     79  72  79 CALM      30.00R
$$

ARZ009-017-025-026-028-140400-
NORTHEAST ARKANSAS

CITY           SKY/WX    TMP DP  RH WIND       PRES   REMARKS
CORNING        FAIR      82  75  78 S10       29.95R HX  89
JONESBORO      CLEAR     83  73  72 S8        29.96S HX  89
NEWPORT        CLEAR     82  76  82 S9        29.97S HX  89
WALNUT RIDGE   CLEAR     82  72  69 S10       29.95R HX  87
BLYTHEVILLE    CLEAR     83  72  69 S7        29.97S HX  88
$$

ARZ022-023-033-042-044-140400-
CENTRAL ARKANSAS

CITY           SKY/WX    TMP DP  RH WIND       PRES   REMARKS
LITTLE ROCK    CLEAR     83  74  74 S7        29.98S HX  89
N LITTLE ROCK  CLEAR     81  74  77 SW3       29.98S HX  87
JACKSONVILLE   CLEAR     83  75  75 S5        29.98S HX  90
SEARCY         CLEAR     83  76  79 W5        29.98F HX  91
HOT SPRINGS    CLEAR     82  73  74 CALM      30.00S HX  87
RUSSELLVILLE   CLEAR     80  76  87 CALM      29.98R HX  86
CLINTON        FAIR      79  77  94 CALM      29.99R
$$

ARZ036-140400-
EAST ARKANSAS

CITY           SKY/WX    TMP DP  RH WIND       PRES   REMARKS
WEST MEMPHIS   CLEAR     83  75  77 SW5       29.98S HX  90
$$

ARZ050-053-066-070-073-140400-
SOUTHWEST ARKANSAS

CITY           SKY/WX    TMP DP  RH WIND       PRES   REMARKS
ARKADELPHIA    FAIR      80  79  97 CALM      30.00R HX  86
CAMDEN         CLEAR     77  70  78 CALM      29.99R
TEXARKANA      CLEAR     83  70  64 SE3       29.99S HX  87
EL DORADO      CLEAR     80  74  81 CALM      30.00S HX  85
DE QUEEN       CLEAR     80  77  90 CALM      29.97R HX  87
$$

ARZ056-057-069-140400-
SOUTHEAST ARKANSAS

CITY           SKY/WX    TMP DP  RH WIND       PRES   REMARKS
PINE BLUFF     CLEAR     80  75  84 S3        30.00R HX  85
MONTICELLO     PTCLDY    83  75  77 S5        30.00S HX  90

$$





USA.gov is the U.S. government's official web portal to all federal, state and local government web resources and services.